[Date Prev][Date Next][Thread Prev][Thread Next] - [Date Index][Thread Index][Author Index]
2 Line ISS Keps 12-7
- Subject: [sarex] 2 Line ISS Keps 12-7
- From: "Dave Larsen PhD" <doc@xxxxxxxxxxx>
- Date: Fri, 7 Dec 2001 03:27:45 -0800
ISS
1 25544U 98067A 01341.20310038 .00063624 00000-0 67169-3 0 8066
2 25544 51.6362 298.1935 0010495 64.5220 70.8370 15.63537892174084
----
Via the sarex mailing list at AMSAT.ORG courtesy of AMSAT-NA.
To unsubscribe, send "unsubscribe sarex" to Majordomo@amsat.org
AMSAT Home